CAPE
0 0 0 0 0 0 0 0 0 0 0 0 0 0 7 2 1 1 82 262 1364 1485 1735 1798 2091 2202 2038 1819 1614 1442 1461 1524 1509 1473 1496 1623 1684 1759 1751 1686 1621 1318 646 241 8 0 0 0 0
0 0 0 0 0 0 0 0 0 0 0 0 0 0 0 0 57 176 180 1105 1350 1526 1718 1789 2286 2228 2023 1786 1491 1341 1382 1417 1385 1392 1412 1470 1508 1540 1531 1493 1306 715 330 40 0 0 0 0 0
0 0 0 0 0 0 0 0 0 0 0 0 0 0 0 0 51 161 226 1150 1472 1433 1642 1799 2337 2191 1987 1629 1528 1314 1283 1362 1411 1445 1385 1348 1365 1354 1340 1312 1078 417 130 1 0 0 0 0 0
0 0 0 0 0 0 0 0 0 0 0 0 0 0 0 0 0 19 757 1211 1422 1436 1586 2154 2239 2118 2000 1695 1590 1418 1329 1380 1481 1498 1432 1330 1296 1257 1218 1178 955 589 8 0 0 0 0 0 0
0 0 0 0 0 0 0 0 0 0 0 0 0 0 0 0 74 292 655 999 1230 1432 1599 2031 2183 2070 1953 1753 1610 1521 1407 1442 1576 1601 1440 1264 1217 1217 1198 1057 693 442 45 0 0 0 0 0 0
0 0 0 0 0 0 0 0 0 0 0 0 0 0 0 0 25 258 342 524 954 1417 1677 1652 2121 2055 1846 1788 1740 1554 1407 1483 1595 1642 1544 1325 1154 1126 1077 1004 801 614 230 16 0 0 0 0 0
0 0 0 0 0 0 0 0 0 0 0 0 0 0 0 0 0 170 230 114 572 1170 1652 1488 1781 1901 1880 1744 1678 1618 1427 1454 1523 1513 1482 1365 1213 1163 1120 976 811 640 376 122 20 0 0 0 0
0 0 0 0 0 0 0 0 0 0 0 0 0 0 0 0 0 0 303 68 397 1196 1614 1462 1455 1728 1566 1502 1793 1695 1564 1473 1422 1484 1453 1317 1234 1120 1032 682 676 633 375 172 84 23 0 0 0
0 0 0 0 0 0 0 0 0 0 0 0 0 0 0 0 10 149 306 438 830 837 1365 1233 1235 1387 1230 1379 1521 1689 1715 1621 1474 1492 1419 1057 751 751 674 440 628 726 528 355 263 151 97 58 38
0 0 0 0 0 0 0 0 0 0 0 0 0 0 0 0 3 425 543 619 840 858 1089 1123 1045 1220 941 1400 1393 1331 1329 1308 1137 1085 1041 634 373 300 299 289 671 735 641 526 422 339 236 145 0
0 0 0 0 0 0 0 0 0 0 0 0 0 0 0 0 0 337 750 775 888 937 1055 1084 1017 995 887 1045 1270 1107 1325 1122 1073 972 794 348 219 266 288 115 255 161 331 101 238 136 88 10 0
0 0 0 0 0 0 0 0 0 0 0 0 0 0 0 0 0 0 209 770 954 935 921 1179 1119 932 882 773 1139 923 1021 894 806 861 529 229 130 92 88 26 0 22 17 39 0 0 0 0 0
0 0 0 0 0 0 0 0 0 0 0 0 0 0 0 0 0 0 0 47 1070 971 925 1043 1281 1128 1086 1040 980 824 889 848 815 733 451 226 88 36 19 2 0 0 0 0 0 0 0 0 0
0 0 0 0 0 0 0 0 0 0 0 0 0 0 0 0 0 0 0 0 694 927 827 865 1145 1253 1059 1060 899 843 810 836 713 675 596 290 104 6 6 6 1 0 0 0 0 0 0 0 0
0 0 0 0 0 0 0 0 0 0 0 0 0 0 0 0 0 0 0 0 149 267 455 775 885 1013 864 1192 864 803 874 814 719 637 535 453 121 20 0 9 29 19 3 0 0 0 0 0 0
0 0 0 0 0 0 0 0 0 0 0 0 0 0 0 0 0 0 0 0 0 31 398 668 916 734 639 1040 904 731 704 683 719 645 517 517 299 62 21 2 36 133 83 70 65 90 110 46 36
0 0 0 0 0 0 0 0 0 0 0 0 0 0 0 0 0 0 0 0 3 91 344 599 714 708 559 697 767 605 385 364 459 463 427 493 520 204 27 63 181 196 261 310 320 216 168 168 29
0 0 0 0 0 0 0 0 0 0 0 0 0 0 0 0 0 0 0 0 0 3 179 471 866 765 569 997 940 651 239 314 269 266 281 333 508 490 209 73 100 331 347 309 259 274 124 129 53
0 0 0 0 0 0 0 0 0 0 0 0 0 0 0 0 0 0 0 0 0 0 72 363 925 1208 1099 1371 1205 982 569 352 384 451 375 422 490 532 667 608 598 339 380 443 407 306 322 181 132
0 0 0 0 0 0 0 0 0 0 0 0 0 0 0 0 0 0 0 0 0 0 0 172 827 1040 1454 1466 1071 822 578 486 594 492 528 847 702 653 578 788 916 825 616 434 343 191 179 124 183
0 0 0 0 0 0 0 0 0 0 0 0 0 0 0 0 0 0 0 0 0 0 0 38 450 559 606 976 748 402 316 362 442 470 410 389 980 1253 895 787 787 802 815 842 615 376 188 339 109
0 0 0 0 0 0 0 0 0 0 0 0 0 0 0 0 0 0 0 0 0 0 0 0 5 1 0 149 792 972 776 576 290 281 415 401 438 466 1061 1169 1081 866 682 785 617 474 377 192 342
0 0 0 0 0 0 0 0 0 0 0 0 0 0 0 0 0 0 0 0 0 0 0 0 0 0 0 0 0 211 485 467 302 222 262 149 277 342 328 499 398 753 821 857 929 420 251 179 243
0 0 0 0 0 0 0 0 0 0 0 0 0 0 0 0 0 0 0 0 0 0 0 0 0 0 0 0 0 2 32 8 72 125 163 165 220 245 312 376 393 414 214 69 62 549 370 221 152
0 0 0 0 0 0 0 0 0 0 0 0 0 0 0 0 0 0 0 0 0 0 0 0 0 0 0 0 0 0 0 0 0 0 0 38 157 172 185 304 453 409 437 574 618 655 606 260 269
0 0 4 17 0 0 0 0 0 0 0 0 0 0 0 0 0 0 0 0 0 0 0 0 0 0 0 0 0 0 0 0 0 0 0 1 3 18 44 94 258 511 605 591 683 447 390 339 292
13 1 29 0 0 0 0 0 0 0 0 0 0 0 0 0 0 0 0 0 0 0 0 0 0 0 0 0 0 0 0 0 0 0 0 0 0 3 2 0 17 135 355 539 517 439 539 570 512
29 24 23 32 4 10 0 0 0 0 0 0 0 0 0 0 0 0 0 0 0 0 0 0 0 0 0 0 0 0 0 0 0 0 0 0 0 0 0 0 1 163 207 168 131 170 218 250 178
0 27 63 8 4 2 1 0 0 0 0 0 0 0 0 0 0 0 0 0 0 0 0 0 0 0 0 0 0 0 0 0 0 0 0 0 0 0 0 0 0 8 32 113 274 372 477 545 613
11 25 44 10 1 30 1 0 0 0 0 0 0 0 0 0 0 0 0 0 0 0 0 0 0 0 0 0 0 0 0 0 0 0 0 0 0 0 0 0 0 11 22 26 43 115 305 575 554
CIN
0 0 0 0 0 0 0 0 0 0 0 0 0 0 -303 -92 -44 -43 -741 -644 -472 -390 -268 -226 -149 -93 -98 -128 -157 -162 -123 -82 -63 -59 -58 -47 -37 -35 -50 -46 -40 -61 -140 -212 -134 0 0 0 0
0 0 0 0 0 0 0 0 0 0 0 0 0 0 0 0 -333 -515 -586 -498 -426 -374 -300 -254 -140 -105 -121 -117 -147 -170 -152 -104 -91 -74 -66 -70 -73 -76 -80 -67 -83 -150 -211 -329 0 0 0 0 0
0 0 0 0 0 0 0 0 0 0 0 0 0 0 0 0 -325 -382 -584 -471 -392 -378 -323 -279 -165 -128 -125 -157 -130 -142 -144 -113 -78 -69 -81 -90 -100 -110 -103 -97 -118 -219 -295 -77 0 0 0 0 0
0 0 0 0 0 0 0 0 0 0 0 0 0 0 0 0 0 -417 -521 -458 -357 -305 -308 -232 -195 -161 -144 -163 -151 -138 -142 -100 -61 -67 -75 -92 -105 -116 -108 -109 -143 -203 -342 0 0 0 0 0 0
0 0 0 0 0 0 0 0 0 0 0 0 0 0 0 0 -516 -501 -510 -446 -390 -314 -266 -210 -174 -164 -144 -163 -156 -162 -161 -131 -74 -62 -75 -103 -104 -109 -108 -128 -184 -234 -344 0 0 0 0 0 0
0 0 0 0 0 0 0 0 0 0 0 0 0 0 0 0 -45 -462 -504 -527 -432 -335 -258 -221 -149 -156 -185 -175 -156 -158 -189 -166 -104 -78 -88 -101 -121 -113 -117 -139 -178 -222 -299 -331 0 0 0 0 0
0 0 0 0 0 0 0 0 0 0 0 0 0 0 0 0 0 -469 -479 -585 -479 -327 -242 -227 -163 -145 -148 -177 -183 -161 -177 -179 -175 -133 -116 -125 -141 -141 -145 -170 -196 -233 -292 -349 -429 0 0 0 0
0 0 0 0 0 0 0 0 0 0 0 0 0 0 0 0 0 0 -436 -593 -499 -343 -235 -223 -189 -137 -182 -183 -129 -153 -148 -156 -187 -167 -145 -150 -152 -173 -197 -268 -263 -270 -326 -376 -410 -477 0 0 0
0 0 0 0 0 0 0 0 0 0 0 0 0 0 0 0 -59 -422 -490 -480 -380 -350 -236 -242 -235 -174 -199 -197 -148 -144 -116 -123 -149 -163 -176 -242 -316 -301 -310 -391 -324 -290 -335 -382 -396 -432 -456 -474 -480
0 0 0 0 0 0 0 0 0 0 0 0 0 0 0 0 -20 -340 -380 -401 -391 -376 -281 -238 -243 -215 -230 -140 -164 -189 -190 -176 -223 -219 -248 -369 -472 -478 -464 -474 -338 -324 -345 -365 -383 -394 -408 -426 0
0 0 0 0 0 0 0 0 0 0 0 0 0 0 0 0 0 -319 -308 -374 -392 -394 -308 -269 -240 -229 -233 -183 -138 -189 -183 -209 -215 -254 -307 -465 -550 -513 -488 -647 -509 -564 -448 -606 -470 -507 -525 -641 0
0 0 0 0 0 0 0 0 0 0 0 0 0 0 0 0 0 0 -317 -344 -348 -389 -379 -319 -271 -254 -242 -234 -155 -174 -221 -268 -286 -283 -377 -541 -650 -701 -698 -817 0 -789 -798 -711 0 0 0 0 -216
0 0 0 0 0 0 0 0 0 0 0 0 0 0 0 0 0 0 0 -395 -317 -352 -357 -344 -278 -285 -231 -200 -179 -192 -196 -263 -294 -298 -411 -544 -705 -815 -862 -403 0 0 0 0 0 0 0 0 0
0 0 0 0 0 0 0 0 0 0 0 0 0 0 0 0 0 0 0 0 -315 -318 -385 -379 -359 -316 -322 -247 -243 -234 -235 -242 -305 -332 -363 -525 -709 -911 -911 -798 -602 0 0 0 0 0 0 0 0
0 0 0 0 0 0 0 0 0 0 0 0 0 0 0 0 0 0 0 0 -321 -332 -397 -399 -405 -386 -396 -324 -298 -270 -254 -260 -274 -334 -385 -416 -667 -843 -2 -812 -774 -774 -686 0 0 0 0 0 0
0 0 0 0 0 0 0 0 0 0 0 0 0 0 0 0 0 0 0 0 0 -442 -412 -417 -367 -418 -440 -330 -410 -383 -328 -290 -312 -341 -412 -433 -517 -742 -780 -145 -700 -630 -647 -605 -602 -579 -569 -629 -619
0 0 0 0 0 0 0 0 0 0 0 0 0 0 0 0 0 0 0 0 -265 -473 -461 -426 -408 -420 -456 -396 -323 -353 -366 -306 -267 -318 -416 -444 -442 -567 -718 -655 -538 -555 -528 -511 -461 -482 -500 -476 -558
0 0 0 0 0 0 0 0 0 0 0 0 0 0 0 0 0 0 0 0 0 -288 -561 -433 -342 -390 -435 -312 -289 -293 -366 -297 -214 -246 -281 -374 -423 -451 -512 -605 -584 -418 -429 -471 -503 -447 -508 -474 -528
0 0 0 0 0 0 0 0 0 0 0 0 0 0 0 0 0 0 0 0 0 0 -602 -509 -356 -335 -293 -245 -226 -200 -239 -248 -187 -230 -271 -211 -285 -394 -381 -319 -364 -420 -380 -328 -321 -392 -376 -423 -477
0 0 0 0 0 0 0 0 0 0 0 0 0 0 0 0 0 0 0 0 0 0 0 -564 -378 -330 -262 -249 -299 -271 -239 -185 -164 -200 -199 -93 -148 -305 -317 -340 -239 -214 -273 -306 -291 -362 -352 -419 -407
0 0 0 0 0 0 0 0 0 0 0 0 0 0 0 0 0 0 0 0 0 0 0 -551 -468 -425 -408 -298 -341 -407 -363 -271 -209 -188 -209 -239 -187 -175 -204 -277 -260 -170 -191 -171 -233 -280 -310 -236 -409
0 0 0 0 0 0 0 0 0 0 0 0 0 0 0 0 0 0 0 0 0 0 0 0 -256 -54 0 -494 -272 -209 -208 -217 -298 -278 -228 -229 -229 -222 -115 -231 -158 -79 -122 -141 -203 -217 -235 -274 -197
0 0 0 0 0 0 0 0 0 0 0 0 0 0 0 0 0 0 0 0 0 0 0 0 0 0 0 0 0 -389 -282 -278 -291 -293 -243 -311 -267 -248 -212 -150 -185 -174 -100 -82 -181 -108 -184 -300 -207
0 0 0 0 0 0 0 0 0 0 0 0 0 0 0 0 0 0 0 0 0 0 0 0 0 0 0 0 0 -196 -257 -290 -372 -321 -279 -307 -286 -276 -228 -182 -157 -98 -139 -146 -144 -121 -89 -249 -264
0 0 0 0 0 0 0 0 0 0 0 0 0 0 0 0 0 0 0 0 0 0 0 0 0 0 0 0 0 0 0 0 0 0 0 -402 -308 -263 -223 -201 -155 -149 -119 -82 -91 -127 -151 -296 -256
0 0 -60 -12 0 0 0 0 0 0 0 0 0 0 0 0 0 0 0 0 0 0 0 0 0 0 0 0 0 0 0 0 0 0 0 -63 -57 -420 -372 -300 -245 -168 -125 -136 -99 -119 -124 -191 -225
-77 -67 -91 -5 0 0 0 0 0 0 0 0 0 0 0 0 0 0 0 0 0 0 0 0 0 0 0 0 0 0 0 0 0 0 0 0 0 -323 -337 0 -350 -262 -222 -160 -138 -129 -121 -160 -149
-36 -49 -16 -25 -4 -3 0 0 0 0 0 0 0 0 0 0 0 0 0 0 0 0 0 0 0 0 0 0 0 0 0 0 0 0 0 0 0 0 0 0 -107 -240 -238 -268 -248 -212 -180 -175 -193
0 -16 -1 -3 0 -10 -7 0 0 0 0 0 0 0 0 0 0 0 0 0 0 0 0 0 0 0 0 0 0 0 0 0 0 0 0 0 0 0 0 0 0 -258 -214 -192 -141 -117 -107 -62 -69
-42 -13 -12 -17 -1 -4 -10 0 0 0 0 0 0 0 0 0 0 0 0 0 0 0 0 0 0 0 0 0 0 0 0 0 0 0 0 0 0 0 0 0 0 -230 -196 -162 -174 -151 -92 -43 -91
Wind_Speed
7 9 1 4 3 4 2 5 3 8 8 8 4 3 11 2 1 4 4 7 17 17 13 16 17 15 15 18 20 21 21 21 20 20 20 19 18 17 17 15 15 14 14 13 12 11 9 8 8
5 6 4 3 4 2 4 4 4 3 5 10 7 2 8 2 1 4 4 8 15 16 14 14 18 15 16 16 17 19 20 20 20 20 19 19 18 17 16 14 14 14 13 12 11 9 8 7 7
5 3 3 4 2 5 5 5 4 13 3 4 1 3 3 3 3 4 6 14 14 13 14 15 19 17 16 17 16 16 18 18 18 18 17 17 16 15 14 13 12 13 12 11 10 8 8 7 7
4 4 4 4 6 6 4 4 8 14 7 7 1 5 3 2 4 3 13 17 15 11 12 18 20 19 17 17 17 16 17 16 15 15 15 14 14 13 12 12 11 11 11 10 9 8 7 7 6
4 3 1 1 6 7 2 3 6 10 3 7 4 2 2 9 6 11 12 14 14 13 9 13 19 19 18 18 18 18 18 17 15 15 14 14 12 11 11 10 10 9 8 7 6 5 5 4 4
3 3 3 4 7 10 1 3 6 6 4 6 3 7 2 1 2 7 12 9 9 13 11 14 17 19 20 19 18 16 18 18 16 15 15 13 12 10 9 9 9 8 8 6 6 4 3 1 1
5 4 6 4 5 7 5 1 2 6 8 4 7 7 4 4 8 10 12 10 10 9 12 14 12 14 18 18 18 17 16 18 18 16 15 14 14 12 11 10 8 8 7 7 5 4 3 3 2
4 5 3 5 5 12 5 1 3 6 18 7 1 3 6 4 5 12 12 8 7 9 11 14 14 10 11 12 18 18 16 17 18 17 15 14 14 13 13 11 10 9 8 8 7 6 5 5 4
4 2 4 7 8 13 10 4 1 3 8 8 2 5 9 10 2 14 12 10 9 7 8 13 14 11 10 10 12 16 18 16 16 16 17 14 7 8 9 10 12 11 10 9 8 7 7 6 6
5 4 8 5 6 6 10 4 5 6 15 12 15 6 3 7 5 16 13 12 13 13 10 13 14 10 7 8 10 10 9 7 7 8 10 6 7 6 8 10 12 12 11 10 9 9 7 6 3
5 7 5 5 7 9 13 13 4 5 13 9 9 6 6 5 6 9 11 17 19 14 11 11 13 13 7 7 7 6 6 6 5 7 7 5 5 5 4 3 4 4 8 3 5 4 3 4 3
3 5 6 7 8 7 8 11 11 8 14 11 14 8 11 9 10 9 10 10 13 16 17 16 14 15 8 5 8 10 8 8 7 8 6 5 4 4 4 3 4 4 3 4 4 2 3 4 5
5 5 6 10 10 8 9 14 13 23 12 14 15 14 11 10 7 7 7 6 12 14 14 16 15 14 11 10 10 9 10 9 11 8 7 5 5 6 4 4 4 4 3 3 4 4 3 5 5
2 5 6 6 8 5 7 14 6 13 11 16 13 12 8 11 12 6 7 9 10 9 13 17 18 16 15 13 15 12 10 10 8 8 9 9 6 4 4 4 4 4 4 4 4 4 4 4 4
4 5 7 4 3 4 1 7 14 4 6 10 10 9 8 10 9 10 13 10 13 9 12 16 16 16 18 19 13 10 9 9 9 8 9 10 8 7 6 5 5 5 4 5 4 4 3 4 3
5 2 4 4 1 6 6 12 13 6 8 11 11 10 10 10 11 10 8 9 10 8 14 12 13 16 15 14 15 12 11 9 9 9 9 13 12 10 6 6 7 5 5 4 4 4 4 4 4
5 5 6 7 6 4 6 11 7 7 6 10 11 11 11 11 7 9 10 9 10 10 11 13 12 16 15 11 9 8 7 2 4 5 7 11 11 11 8 7 4 4 4 5 4 4 3 3 3
5 5 7 5 8 4 8 18 10 9 6 14 12 12 10 11 13 10 9 8 8 7 5 8 10 13 10 4 4 4 5 5 3 4 5 8 10 11 9 5 5 5 4 4 3 5 3 3 2
5 5 12 14 16 4 13 17 11 9 8 11 11 9 11 12 11 7 8 7 6 4 8 8 8 7 10 5 5 4 7 8 9 9 8 6 7 9 10 6 4 5 6 5 4 2 4 2 3
8 12 14 12 15 6 9 11 14 6 7 8 10 9 11 5 2 3 8 8 9 8 6 6 8 7 5 5 4 4 4 5 6 5 10 15 13 8 8 9 4 5 4 3 5 3 1 2 4
7 7 9 12 7 5 2 7 8 5 5 6 6 4 5 9 8 5 7 10 8 9 9 9 8 8 6 5 4 3 2 2 4 4 4 5 6 7 7 5 5 5 4 6 5 4 6 4 3
3 4 7 7 2 7 3 11 10 7 7 5 8 7 8 7 6 5 9 8 9 10 8 8 8 8 7 7 5 5 4 4 3 4 4 4 6 4 5 12 10 6 5 3 4 3 5 3 5
7 4 5 4 4 2 3 1 11 3 7 10 9 9 6 10 10 11 11 15 10 8 9 7 7 7 7 6 5 4 3 3 2 1 3 3 4 5 6 8 7 10 6 7 2 5 6 5 4
3 3 2 1 3 3 6 7 11 12 9 6 4 8 9 12 10 12 14 11 8 7 8 8 8 7 7 8 8 9 8 5 3 3 3 2 3 3 5 4 5 9 13 17 17 11 11 8 6
8 6 5 5 2 12 5 4 18 6 8 6 5 10 12 12 15 9 12 15 12 11 10 8 8 7 7 7 7 7 8 7 6 5 4 3 1 2 5 4 6 6 6 7 8 11 15 11 7
1 6 5 7 5 8 6 8 7 6 2 2 1 6 8 10 7 11 15 17 15 11 9 9 9 7 7 7 7 6 6 5 4 5 4 4 3 3 3 5 5 5 7 8 7 7 8 5 6
4 5 4 3 1 2 5 8 10 6 1 3 7 9 11 9 9 8 8 5 9 8 10 10 9 8 9 9 6 5 4 6 6 6 4 3 3 3 3 2 4 4 5 5 5 4 6 4 8
5 3 2 2 4 5 4 4 9 11 6 4 5 4 6 8 11 10 8 8 5 7 5 8 10 12 10 8 7 6 8 7 6 4 5 4 4 2 2 4 4 4 5 5 5 6 8 6 6
3 2 2 2 4 4 1 5 5 4 10 9 7 4 5 5 6 7 5 6 5 2 3 7 7 9 8 8 7 7 7 7 4 3 2 2 1 3 5 5 5 6 6 5 5 6 7 8 9
4 3 5 2 3 3 2 7 6 10 16 11 12 11 4 6 4 5 6 6 7 6 4 5 5 5 6 8 7 8 7 6 6 6 6 6 6 5 6 5 5 6 6 6 5 5 7 7 7
Wind_Direction
328 312 46 31 47 65 258 273 258 324 9 318 305 115 130 60 189 231 305 139 134 145 153 155 154 154 143 136 134 134 134 134 133 133 132 133 135 135 132 133 131 136 141 144 144 142 138 131 120
326 331 29 65 96 102 267 238 305 293 296 290 308 8 46 46 29 111 95 128 141 146 154 155 155 154 146 139 137 137 136 137 138 138 138 139 139 137 134 135 140 146 148 149 145 141 135 128 118
327 43 51 91 130 183 226 143 303 312 355 289 198 55 59 13 312 183 134 140 142 154 157 157 155 152 149 142 140 136 134 139 138 138 139 139 138 136 138 144 147 152 154 154 149 146 138 126 111
357 20 27 104 234 251 239 7 325 322 11 327 72 41 8 318 270 141 140 142 142 158 161 160 156 151 151 150 146 142 139 139 140 138 138 139 139 138 144 149 154 160 159 158 154 150 143 137 124
36 62 69 255 260 263 238 351 290 295 343 307 107 15 55 333 5 115 136 152 150 159 166 161 157 152 153 154 153 150 145 143 143 143 145 142 140 143 148 154 159 160 154 152 157 148 146 142 121
47 87 108 218 243 272 342 49 307 308 65 324 1 133 188 358 173 148 145 155 157 156 157 168 165 159 157 157 156 157 150 146 149 152 149 146 146 151 156 160 163 161 152 156 162 167 168 160 129
135 105 208 198 262 291 285 69 330 307 319 241 274 136 196 194 206 171 163 144 144 153 161 169 170 166 159 158 158 159 158 153 153 156 155 155 156 160 165 169 170 166 160 160 170 186 205 211 263
130 109 203 206 232 265 256 265 9 331 302 323 234 220 235 180 270 165 140 131 132 145 166 173 171 168 160 161 162 160 163 163 159 159 161 162 166 169 173 176 177 177 177 175 186 200 217 238 241
104 112 224 214 193 249 294 304 141 276 261 309 203 277 239 143 133 117 119 120 127 142 168 175 174 170 166 158 171 165 169 170 169 167 168 166 170 175 186 183 186 186 188 185 196 208 221 240 265
136 172 225 218 231 268 278 252 305 320 296 289 302 258 153 136 181 134 148 157 159 165 166 178 177 164 171 167 173 169 171 173 172 178 176 175 169 180 188 194 196 194 196 196 204 213 220 241 249
189 220 214 242 232 241 268 284 252 256 280 247 267 276 300 114 160 146 170 170 178 166 165 171 176 172 164 173 174 182 174 178 188 186 180 175 173 189 196 200 199 196 209 195 211 225 211 224 243
249 251 237 265 234 244 250 270 268 237 257 258 270 245 228 205 166 171 177 180 168 173 174 167 172 176 175 163 177 194 188 182 191 193 187 177 181 186 199 198 209 201 196 199 203 217 230 242 250
204 253 270 267 270 254 262 266 262 264 267 269 269 268 203 216 205 172 186 181 171 175 172 175 169 173 176 169 182 192 201 195 192 193 189 183 193 195 181 202 194 204 191 198 215 211 224 239 245
224 259 260 275 269 260 256 266 259 275 240 248 255 251 190 207 200 162 179 181 185 174 178 175 178 176 172 182 184 193 197 202 193 189 197 193 191 191 184 190 204 212 200 195 203 208 216 233 225
255 285 315 230 231 263 171 287 255 247 239 229 256 263 245 219 190 192 185 180 182 189 173 179 181 181 179 181 182 187 197 194 197 201 194 199 196 188 190 196 206 207 199 213 201 217 216 245 230
3 82 304 274 257 258 156 259 278 262 217 237 251 263 260 255 198 208 243 175 192 163 179 176 177 189 189 198 185 186 190 195 200 200 199 197 199 195 200 201 215 196 184 190 204 216 233 224 232
355 260 273 306 209 223 190 270 259 282 276 246 242 244 248 255 254 216 202 199 185 193 167 171 179 183 193 190 200 199 150 182 245 245 211 206 201 199 191 199 229 205 206 188 194 215 211 239 244
267 298 287 286 287 177 271 274 273 274 256 271 271 236 235 239 235 219 212 195 177 174 169 163 180 180 176 151 138 139 138 153 233 213 252 244 208 191 195 202 186 201 207 216 183 200 210 245 186
238 259 264 279 278 277 273 272 276 267 290 291 286 227 229 233 244 179 189 162 147 175 157 160 151 157 163 154 145 152 176 179 210 222 199 239 234 200 180 211 209 199 207 220 211 185 190 222 194
243 258 273 272 260 190 251 260 278 243 256 266 272 229 224 247 212 198 179 167 180 171 179 157 146 157 166 148 144 151 157 192 199 208 209 211 212 188 209 162 191 218 195 190 206 179 202 201 204
256 238 269 263 276 258 251 283 285 277 267 279 268 237 270 239 209 190 218 194 171 178 179 170 161 147 144 133 103 82 62 124 169 193 212 224 234 179 174 165 141 236 210 200 206 184 189 199 236
264 281 279 266 225 259 151 274 278 272 272 258 273 272 272 254 250 220 203 208 197 191 174 160 158 152 144 148 142 161 159 172 223 158 185 245 252 295 233 168 163 189 240 278 214 210 216 161 230
234 303 284 299 261 10 242 193 280 249 272 267 278 294 273 238 232 230 204 212 203 165 168 163 151 149 143 130 133 131 144 182 193 219 249 193 189 196 268 293 225 187 175 254 170 244 239 198 176
322 314 293 62 129 244 248 183 270 269 236 232 230 291 294 300 259 228 214 194 190 159 158 156 159 161 159 154 157 155 162 177 170 192 231 208 204 173 200 241 293 261 232 230 233 235 220 207 204
50 40 320 296 254 250 168 213 243 283 275 247 277 296 305 279 272 222 176 179 164 180 169 159 160 171 175 168 162 167 173 177 185 194 191 206 168 206 216 198 215 225 240 262 243 213 221 198 192
160 166 189 271 248 275 339 242 263 256 325 81 16 336 334 334 286 210 192 175 173 170 166 164 171 166 179 181 187 177 166 175 191 195 179 183 178 206 199 203 224 215 210 211 214 221 241 240 210
188 198 161 221 252 299 242 300 293 292 236 5 51 26 2 9 29 21 12 110 149 170 178 174 173 196 193 194 181 198 190 192 207 211 185 186 194 206 236 262 274 270 222 202 208 232 244 244 234
171 143 242 251 225 209 264 254 248 327 314 317 0 58 5 21 35 28 27 34 13 334 227 183 190 193 198 194 192 200 203 209 222 193 206 215 249 242 269 270 258 247 241 219 217 241 249 243 254
326 268 234 266 235 227 284 256 209 287 297 311 285 253 131 57 48 31 15 12 18 357 329 292 221 198 191 185 190 200 206 208 202 202 241 248 272 257 265 238 239 251 246 235 215 236 261 260 262
199 219 160 248 291 274 284 273 38 11 321 321 312 311 290 138 106 48 22 25 356 350 277 230 263 300 260 191 191 202 192 198 205 205 213 204 216 210 219 237 257 261 255 261 251 264 276 254 269